sat.trackr.live / text

‹ back to catalog

STARLINK-36962

NORAD 68269 · 2026-055H

PAYLOAD ACTIVE UNKNOWN

§ Identity

Operator
Country
US
Launch date
2026-03-19
Launch site
AFETR
Launch vehicle
Mass (kg)
RCS (m²)

Purposes: comms

External: N2YO · Heavens-Above · Gunter

§ Orbital elements

Epoch: 2026-09-20T00:46:21.978048Z

Period
93.85 min
Inclination
53.1605°
Eccentricity
0.0000894
Mean motion
15.34407636 rev/d
Perigee alt
462.1 km
Apogee alt
463.3 km
Semi-major
6,840.8 km
B*
6.6260e-4
RAAN
131.7229°
Arg perigee
58.1469°
Mean anomaly
301.9620°
Rev number
2,975

§ Raw data

STARLINK-369621 68269U 26055H   26263.03219882  .00022082  00000+0  66260-3 0  99972 68269  53.1605 131.7229 0000894  58.1469 301.9620 15.34407636 29755

JSON: /api/v1/satellites/68269 · /tle

For live sub-satellite position, see the globe view (requires WebGL).

§ Visibility from observer

Set your observer location to see the next 7 days of passes ≥ 10°. The values pass through the URL so the page stays shareable.

No JS? Fill the form by hand. The geolocation button needs JavaScript.